Location: ?????????
(55.6553°N, 38.9075°E)
Time: 15:21:49
(UTC+00:00)

USA 229 - Pass Details

Date: 18 October 2019
Orbit: 996 x 1216 km, 63.4° (Epoch: 19 November)

Event Time Altitude Azimuth Distance (km) Brightness Sun altitude
Exits shadow 01:07:02 36° 300° (WNW) 1,644 4.3 -24.8°
Maximum altitude 01:09:22 48° 348° (NNW) 1,392 4.3 -24.5°
Drops below altitude 10° 01:16:18 10° 62° (ENE) 3,026 7.1 -23.6°
Sets 01:19:12 0° 68° (ENE) 4,019 8.2 -23.2°
